Погода в Песках-Радьковских

Украина / Харьковская область     49°16′00″N   37°36′32″E
В апреле 2022 года жителям России запретили посещать сайт meteo.paraplan.net по решению Генеральной прокуратуры. Аудитория сайта уменьшилась в 10 раз. Владельцы сайта не видят смысла в поддержке погодного сервера в таких условиях. Сайт будет закрыт в октябре.
темп.,
°C
ветер,
м/с
пор.,
м/с
влажн.,
%
обл.,
%
осадки,
мм/ч
давл.,
гПа
погр.,
м
25 сентября, вс
вс2500:00+8зюз5118761 0.0 1012316
03:00+8зюз61388100 0.0 1013514
06:00+8зюз7148974 0.0 1013604
09:00+10з9157778 0.0 10131123
12:00+15з10145013 0.0 10141828
15:00+16з913435 0.0 10142116
18:00+14з612495 0.0 1015441
21:00+11зюз51159100 0.0 1016279
26 сентября, пн
пн2600:00+9зюз497034 0.0 1016186
03:00+10зюз3866100 0.0 1016206
06:00+10юз2265100 0.0 101651
09:00+13юз355462 0.0 1016331
12:00+17зюз466195 0.1 10151024
15:00+19зюз5851100 0.4 10151776
18:00+16з226276 0.0 101514
21:00+15юв2265100 0.0 101414
27 сентября, вт
вт2700:00+13ююв3878100 0.0 1014174
03:00+11ю3485100 0.0 101387
06:00+11ю2494100 0.0 101270
09:00+15ю4879100 0.0 1011318
12:00+19ю455998 0.0 1010738
15:00+20юв3454100 0.0 1009509
18:00+18вюв3557100 0.0 100887
21:00+15вюв4862100 0.0 1007138
28 сентября, ср
ср2800:00+14юв4867100 0.0 1006154
03:00+14вюв4863100 0.0 1005150
06:00+13юв3761100 0.0 1003143
09:00+15ююв3866100 0.1 1004284
12:00+17ююз5978100 0.3 1003585
15:00+14юв3785100 1.4 1002216
18:00+15юз25866 0.1 1003161
21:00+13ююз229680 2.4 100427
29 сентября, чт
чт2900:00+14зюз22948 0.0 100536
03:00+12зсз36955 0.0 1007136
06:00+10зсз37955 0.0 1009166
09:00+14сз47760 0.0 1010365
12:00+18сз45545 0.0 10111251
15:00+20сз5647100 0.0 10121601
18:00+16с2263100 0.0 101411
21:00+15с0166100 0.0 101510